This demonstration page uses our WeatherBlox Daily Observations layout. Learn more.

Left ArrowRight Arrow

38.80484, -77.04692

Hourly Observations for October 31, 2021

Temp ( °F °C ) Dew Point ( °F °C ) Humidity (%) Winds ( mph kmh ) Pressure ( in mb ) Visibility ( mi km ) Precip ( " mm )
12:52 am 00:52 Partly Cloudy 54 12.2 49 9.4 83 83 SW 3 6 29.57 1001 10 16 0.00 0.00
1:52 am 01:52 Partly Cloudy 53 11.7 49 9.4 86 86 SW 5 7 29.57 1001 10 16 0.00 0.00
2:09 am 02:09 Cloudy 53 11.7 50 10 89 89 S 5 7 29.57 1001 10 16 0.00 0.00
2:52 am 02:52 Mostly Cloudy 54 12.2 50 10 87 87 WSW 3 6 29.58 1002 10 16 0.00 0.00
3:11 am 03:11 Partly Cloudy 53 11.7 49 9.4 86 86 SW 6 9 29.58 1002 10 16 0.00 0.00
3:52 am 03:52 Partly Cloudy 52 11.1 49 9.4 89 89 SSW 7 11 29.58 1002 10 16 0.00 0.00
4:50 am 04:50 Mostly Cloudy 52 11 50 10 94 94 SSW 5 7 29.60 1002 10 16 0.00 0.00
4:52 am 04:52 Mostly Cloudy 52 11.1 49 9.4 89 89 SSW 6 9 29.60 1002 10 16 0.00 0.00
5:25 am 05:25 Cloudy 53 11.7 50 10 89 89 SSW 6 9 29.61 1003 10 16 0.00 0.00
5:52 am 05:52 Cloudy 53 11.7 50 10 89 89 SSW 6 9 29.62 1003 10 16 0.00 0.00
6:21 am 06:21 Cloudy 53 11.7 50 10 89 89 SSW 5 7 29.62 1003 10 16 0.00 0.00
6:52 am 06:52 Cloudy 53 11.7 50 10 89 89 SW 8 13 29.64 1004 10 16 0.00 0.00
7:34 am 07:34 Cloudy 52 11.1 50 10 93 93 SW 8 13 29.65 1004 10 16 0.00 0.00
7:47 am 07:47 Cloudy with Mist and Fog 52 11 50 10 94 94 SW 6 9 29.65 1004 5 8 0.00 0.00
7:52 am 07:52 Cloudy with Mist and Fog 52 11.1 50 10 93 93 SW 6 9 29.65 1004 5 8 0.00 0.00
8:50 am 08:50 Cloudy 54 12 52 11 94 94 SSW 8 13 29.67 1005 10 16 0.00 0.00
8:52 am 08:52 Cloudy 53 11.7 51 10.6 93 93 S 6 9 29.67 1005 10 16 0.00 0.00
9:50 am 09:50 Mostly Cloudy 55 13 52 11 88 88 SSW 6 9 29.69 1005 10 16 0.00 0.00
9:52 am 09:52 Mostly Cloudy 55 12.8 51 10.6 87 87 S 6 9 29.69 1005 10 16 0.00 0.00
10:52 am 10:52 Mostly Cloudy 60 15.6 54 12.2 80 80 S 8 13 29.69 1006 10 16 0.00 0.00
11:52 am 11:52 Mostly Cloudy 67 19.4 51 10.6 57 57 W 8 13 29.70 1006 10 16 0.00 0.00
12:52 pm 12:52 Mostly Cloudy 68 20 50 10 53 53 WNW 14 22 29.70 1006 10 16 0.00 0.00
1:52 pm 13:52 Mostly Cloudy 67 19.4 49 9.4 53 53 W 12 19 29.71 1006 10 16 0.00 0.00
2:52 pm 14:52 Mostly Cloudy 67 19.4 48 8.9 51 51 WNW 12 19 29.73 1007 10 16 0.00 0.00
3:52 pm 15:52 Mostly Cloudy 68 20 47 8.3 47 47 NW 17 28 29.75 1007 10 16 0.00 0.00
4:52 pm 16:52 Mostly Cloudy 66 18.9 46 7.8 49 49 WNW 14 22 29.79 1009 10 16 0.00 0.00
5:52 pm 17:52 Mostly Cloudy 64 17.8 46 7.8 52 52 NW 14 22 29.82 1010 10 16 0.00 0.00
6:52 pm 18:52 Partly Cloudy 62 16.7 45 7.2 54 54 NW 13 20 29.85 1011 10 16 0.00 0.00
7:52 pm 19:52 Mostly Clear 60 15.6 45 7.2 58 58 NW 10 17 29.88 1012 10 16 0.00 0.00
8:52 pm 20:52 Mostly Clear 58 14.4 45 7.2 62 62 W 6 9 29.91 1013 10 16 0.00 0.00
9:52 pm 21:52 Mostly Clear 57 13.9 45 7.2 64 64 WSW 6 9 29.93 1013 10 16 0.00 0.00
10:52 pm 22:52 Mostly Clear 55 12.8 46 7.8 72 72 S 5 7 29.94 1014 10 16 0.00 0.00
11:52 pm 23:52 Clear 55 12.8 46 7.8 72 72 S 10 17 29.96 1015 10 16 0.00 0.00

Powered by AerisWeather